Augusta, GA

8:35 AM EST on February 26, 2017 (GMT -0500)
Augusta Regional At Bush

Weather History for KAGS - January, 2014

Change the Weather History Date:

Friday, January 17, 2014

  Actual Average Record
Temperature  
Mean Temperature 43 °F 45 °F  
Max Temperature 59 °F 58 °F 80 °F (1943)
Min Temperature 26 °F 33 °F 11 °F (1977)
Degree Days  
Heating Degree Days 22 20  
Month to date heating degree days 397 340  
Since 1 July heating degree days 1314 1315  
Cooling Degree Days 0 0  
Month to date cooling degree days 0 0  
Year to date cooling degree days 0 0  
Moisture  
Dew Point 25 °F    
Average Humidity 53    
Maximum Humidity 81    
Minimum Humidity 24    
Precipitation  
Precipitation 0.00 in 0.12 in 1.50 in (1919)
Month to date precipitation 2.22 2.10  
Year to date precipitation 2.22 2.10  
Sea Level Pressure  
Sea Level Pressure 30.01 in    
Wind  
Wind Speed 8 mph (WSW)    
Max Wind Speed 22 mph    
Max Gust Speed 31 mph    
Visibility 10 miles    
Events      
T = Trace of Precipitation, MM = Missing Value Source: NWS Daily Summary

Daily Weather History Graph

Daily Weather History Graph

Search for Another Location

Airport or City:

Trip Planner

Search our weather history database for the weather conditions in past years. The results will help you decide how hot, cold, wet, or windy it might be!

Date:

Astronomy

Jan. 17, 2014 Rise Set
Actual Time 7:31 AM EST 5:45 PM EST
Civil Twilight 7:04 AM EST 6:11 PM EST
Nautical Twilight 6:33 AM EST 6:42 PM EST
Astronomical Twilight 6:04 AM EST 7:12 PM EST
Moon 7:23 PM EST (1/17) 8:04 AM EST (1/17)
Length of Visible Light 11h 07m
Length of Day
10h 13m
Full, 98% of the Moon is Illuminated
Jan 17
Full
Jan 24
Last Quarter
Jan 30
New
Feb 6
First Quarter
Feb 14
Full

Hourly Weather History & Observations

Time (EST) Temp. Windchill Dew Point Humidity Pressure Visibility Wind Dir Wind Speed Gust Speed Precip Events Conditions
12:53 AM 27.0 °F - 21.0 °F 78% 30.10 in 10.0 mi Calm Calm - N/A   Clear
1:53 AM 27.0 °F - 19.9 °F 75% 30.09 in 10.0 mi Calm Calm - N/A   Clear
2:53 AM 28.9 °F - 21.9 °F 75% 30.06 in 10.0 mi Calm Calm - N/A   Clear
3:53 AM 30.9 °F 26.2 °F 19.9 °F 64% 30.06 in 10.0 mi SSW 4.6 mph - N/A   Clear
4:53 AM 32.0 °F 27.5 °F 19.9 °F 61% 30.04 in 10.0 mi SSW 4.6 mph - N/A   Clear
5:53 AM 35.1 °F 27.9 °F 21.9 °F 59% 30.04 in 10.0 mi SSW 9.2 mph - N/A   Clear
6:53 AM 33.1 °F 26.9 °F 21.9 °F 64% 30.06 in 10.0 mi SSW 6.9 mph - N/A   Clear
7:53 AM 33.1 °F 28.7 °F 23.0 °F 66% 30.06 in 10.0 mi SSW 4.6 mph - N/A   Clear
8:53 AM 39.9 °F 35.1 °F 27.0 °F 60% 30.07 in 10.0 mi SW 6.9 mph - N/A   Clear
9:53 AM 46.0 °F 41.0 °F 30.9 °F 56% 30.07 in 10.0 mi WSW 10.4 mph 17.3 mph N/A   Clear
10:53 AM 48.9 °F - 32.0 °F 52% 30.07 in 10.0 mi West 11.5 mph - N/A   Clear
11:53 AM 51.1 °F - 33.1 °F 50% 30.03 in 10.0 mi SW 8.1 mph - N/A   Clear
12:53 PM 55.9 °F - 33.1 °F 42% 29.98 in 10.0 mi SW 10.4 mph 17.3 mph N/A   Clear
1:53 PM 57.0 °F - 30.9 °F 37% 29.94 in 10.0 mi SSW 8.1 mph 18.4 mph N/A   Clear
2:53 PM 57.0 °F - 28.9 °F 34% 29.93 in 10.0 mi SSW 13.8 mph 20.7 mph N/A   Clear
3:53 PM 57.0 °F - 28.9 °F 34% 29.91 in 10.0 mi SW 13.8 mph 20.7 mph N/A   Clear
4:53 PM 55.9 °F - 32.0 °F 40% 29.91 in 10.0 mi SW 8.1 mph 18.4 mph N/A   Clear
5:53 PM 52.0 °F - 30.9 °F 45% 29.91 in 10.0 mi SSW 4.6 mph - N/A   Clear
6:53 PM 52.0 °F - 32.0 °F 47% 29.93 in 10.0 mi WSW 6.9 mph - N/A   Mostly Cloudy
7:53 PM 54.0 °F - 23.0 °F 30% 29.95 in 10.0 mi West 15.0 mph 26.5 mph N/A   Mostly Cloudy
8:53 PM 52.0 °F - 15.1 °F 23% 29.98 in 10.0 mi WNW 17.3 mph 24.2 mph N/A   Mostly Cloudy
9:53 PM 48.9 °F - 15.1 °F 26% 30.00 in 10.0 mi WNW 10.4 mph 19.6 mph N/A   Overcast
10:53 PM 45.0 °F 38.2 °F 17.1 °F 33% 30.02 in 10.0 mi WNW 15.0 mph 20.7 mph N/A   Partly Cloudy
11:53 PM 42.1 °F 35.7 °F 19.9 °F 41% 30.01 in 10.0 mi WNW 11.5 mph - N/A   Clear